Regional Weather Roundup
Issued by NWS

Home | Current Version | Previous Version | Text Only | Print | Product List | Glossary Off
Versions: 1 2 3 4 5 6 7 8 9 10 11 12 13 14 15 16 17 18 19 20 21 22 23 24 25 26 27 28 29 30 31 32 33 34 35 36 37 38 39 40 41 42 43 44 45 46 47 48 49 50

000
ASUS43 KMPX 010501
RWRMN
WEATHER ROUNDUP FOR MINNESOTA
NATIONAL WEATHER SERVICE TWIN CITIES/CHANHASSEN MN
1200 AM CDT MON MAY 01 2017


NOTE: "FAIR" INDICATES FEW OR NO CLOUDS BELOW 12,000 FEET WITH NO
SIGNIFICANT WEATHER AND/OR OBSTRUCTIONS TO VISIBILITY. N/A MEANS
CURRENT SKY AND/OR WEATHER CONDITIONS ARE NOT AVAILABLE.

MNZ060>063-068>070-010600-
   Twin Cities Metro

CITY           SKY/WX    TMP DP  RH WIND       PRES   REMARKS
TWIN CITIES    HVY RAIN  39  35  86 NE9       29.71R FOG
ST PAUL        HVY RAIN  39  37  92 NE6       29.73R FOG
CRYSTAL        HVY RAIN  38  34  85 NE5       29.73R FOG
LAKEVILLE      HVY RAIN  37  37 100 NE12      29.65F
EDEN PRAIRIE   RAIN      40  36  86 NE10      29.68R FOG
SOUTH ST PAUL  RAIN      38  38  98 NE3       29.71R
LAKE ELMO      LGT SNOW  37  36  93 SE3       29.74R
$$
MNZ001>005-007-008-013>017-022>024-027-028-010600-
   Northwest Minnesota

CITY           SKY/WX    TMP DP  RH WIND       PRES   REMARKS
BEMIDJI        CLOUDY    42  24  48 NE7       29.82F
HALLOCK        CLEAR     43  25  49 E7        29.87F
ROSEAU         CLEAR     39  30  70 NE6       29.89F
WARROAD        CLEAR     43  34  70 CALM      29.90F
THIEF RVR FALL PTCLDY    44  26  49 NE9       29.86F
CROOKSTON      CLOUDY    46  28  49 NE8       29.85F
FOSSTON        CLOUDY    41  21  45 NE5       29.84F
DETROIT LAKES  CLOUDY    46  23  39 E7        29.82S
MOORHEAD       CLOUDY    43  28  56 CALM      29.83S
PARK RAPIDS    CLOUDY    46  19  34 NE9       29.80F
MAHNOMEN       FAIR      42  29  61 NE6       29.82S
$$
MNZ006-009>011-018-025>026-010600-
   North Central Minnesota

CITY           SKY/WX    TMP DP  RH WIND       PRES   REMARKS
BAUDETTE       CLEAR     41  23  48 E5        29.89F
FLAG ISLAND    CLEAR     46  19  34 NE5       29.90S
INTL FALLS     PTCLDY    41  19  41 E6        29.89F
WASKISH        CLOUDY    43  25  49 NE7       29.86F
BIG FORK       CLOUDY    45  19  36 NE7       29.85F
LONGVILLE      CLOUDY    43  10  26 NE9       29.81F
GRAND RAPIDS   CLOUDY    43  11  27 NE5G17    29.83F
CRANE LAKE     PTCLDY    27  21  80 CALM      29.90F
ORR            CLOUDY    39  10  30 CALM      29.84F
COOK           PTCLDY    41  18  38 N3        29.85F
WALKER         FAIR      44  19  37 E8        29.81F
$$
MNZ012-019>021-037-010600-
   Northeast Minnesota

CITY           SKY/WX    TMP DP  RH WIND       PRES   REMARKS
DULUTH         CLOUDY    40  18  41 E20       29.76F
ELY            CLOUDY    39  16  38 NE5       29.84F
HIBBING        CLOUDY    41  12  30 NE9G21    29.82F
EVELETH        CLOUDY    42   1  18 NE12G17   29.83F
DULUTH HARBOR  CLOUDY    39  32  75 NE21      29.79F
TWO HARBORS    CLOUDY    45  21  39 NE10G17   29.78F
SILVER BAY     CLOUDY    43  16  33 NE12G17   29.79F
GRAND MARAIS     N/A     47  16  29 NE7       29.85F
G MARAIS ARPRT CLOUDY    37  10  32 N9        29.85F
$$
MNZ029>031-032-039>041-046>048-054>057-064-010600-
   West Central Minnesota

CITY           SKY/WX    TMP DP  RH WIND       PRES   REMARKS
FERGUS FALLS   CLOUDY    48  23  37 E14       29.80F
WHEATON        CLOUDY    45  28  53 N6        29.80F
MORRIS         RAIN      39  32  75 NE15G25   29.78F
ALEXANDRIA     CLOUDY    43  20  39 NE15      29.78F
ELBOW LAKE     CLOUDY    46  26  46 NE8       29.79F
WADENA         CLOUDY    43  19  39 E8        29.79F
GLENWOOD       LGT SNOW  36  30  80 NE21G31   29.78F
APPLETON       LGT RAIN  39  34  81 NE17      29.76F
BENSON         RAIN      37  30  75 NE13      29.78F
ORTONVILLE     LGT RAIN  39  34  81 NE17G24   29.77F
MADISON        MIX PCPN  39  37  93 N18G26    29.75F
WILLMAR        LGT SNOW  34  34 100 N14       29.74F WCI  24
$$
MNZ033>034-036-042>043-049>051-058-059-010600-
   Central Minnesota

CITY           SKY/WX    TMP DP  RH WIND       PRES   REMARKS
ST CLOUD       RAIN      36  32  85 N9        29.73F
SAUK CENTRE    FLURRIES  37  27  67 NE16G24   29.77F
PAYNESVILLE    LGT SNOW  34  34 100 N9G16     29.75S WCI  26
AITKIN         MIX PCPN  43  12  28 NE12      29.77F
PINE RIVER     CLOUDY    43  21  42 NE7       29.84S
BRAINERD       CLOUDY    41  16  36 NE18      29.78F
STAPLES        CLOUDY    43  16  33 NE7       29.79S
LONG PRAIRIE   FLURRIES  41  19  42 N15G22    29.78S
LITTLE FALLS   CLOUDY    41  18  38 N6        29.77S
BUFFALO        HVY RAIN  36  33  88 N8        29.75R
MAPLE LAKE     MIX PCPN  37  35  93 NE8       29.76R
HUTCHINSON     RAIN      37  37  97 N13G23    29.69F
$$
MNZ037-044-045-052-053-010600-
   East Central Minnesota

CITY           SKY/WX    TMP DP  RH WIND       PRES   REMARKS
PRINCETON      RAIN      37  34  87 N8G20     29.73R
MORA           LGT RAIN  34  30  86 NE7       29.74F WCI  28
CAMBRIDGE      RAIN      37  28  70 N7G16     29.70R
RUSH CITY      RAIN      35  31  86 N12       29.71F WCI  27
MOOSE LAKE     RAIN      37  23  56 NE13G20   29.75S
HINCKLEY       RAIN      36  32  87 N13G18    29.72F
CLOQUET        CLOUDY    41  16  36 NE15      29.76F
MCGREGOR       CLOUDY    41  21  45 NE8       29.79R
$$
MNZ071>073-080-081-089-090-097-098-010600-
   Southwest Minnesota

CITY           SKY/WX    TMP DP  RH WIND       PRES   REMARKS
MONTEVIDEO     LGT SNOW  34  34 100 NE15G23   29.73F WCI  24
GRANITE FALLS  LGT SNOW  34  33  95 N16G23    29.71F WCI  24
CANBY          LGT SNOW  36  35  94 NE15G23   29.73F
MARSHALL       LGT SNOW  33  32  96 N18       29.67F FOG     WCI  22
REDWOOD FALLS  RAIN      36  34  92 N13G21    29.66F FOG
OLIVIA         LGT RAIN  36  34  93 N18       29.68F
PIPESTONE      LGT SNOW  34  30  86 NE18      29.61F WCI  23
WINDOM         RAIN      36  36 100 N23G30    29.58F
WORTHINGTON    MIX PCPN  33  32  96 N24G30    29.55F WCI  20
JACKSON        LGT RAIN  36  36 100 N23G29    29.54F
TRACY          LGT SNOW  33  33 100 N15       29.65F VSB 1   WCI  23
SLAYTON        LGT SNOW  32  32 100 N17G29    29.62F VSB 3/4 WCI  21
$$
MNZ065>067-074>077-082>085-091>093-010600-
   South Central Minnesota

CITY           SKY/WX    TMP DP  RH WIND       PRES   REMARKS
MANKATO        RAIN      39  38  96 NE13      29.61F
NEW ULM        LGT RAIN  37  36  93 NE14G23   29.62F
ST JAMES       HVY RAIN  37  37 100 N17       29.59F
FAIRMONT       LGT RAIN  39  38  96 N23G29    29.48F
GLENCOE        RAIN      38  38 100 N12G20    29.66F
FARIBAULT      RAIN      39  39 100 NE7G16    29.63F
OWATONNA       LGT RAIN  39  37  93 NE9       29.60F
WASECA         RAIN      41  37  87 NE13G20   29.59F
ALBERT LEA     RAIN      37  37 100 NE20      29.50F
$$
MNZ078>079-086>088-094>096-010600-
   Southeast Minnesota

CITY           SKY/WX    TMP DP  RH WIND       PRES   REMARKS
ROCHESTER      LGT RAIN  38  37  97 E16       29.57F
RED WING       HVY RAIN  43  37  81 E5        29.67R
STANTON        RAIN      42  39  89 NE15      29.61F
DODGE CENTER   DRIZZLE   37  37 100 NE15      29.57F
WINONA         LGT RAIN  39  37  93 NE7       29.66F
AUSTIN         HVY RAIN  39  36  87 NE12G17   29.50F
PRESTON        LGT RAIN  37  35  94 NE15      29.53F
$$
ABBREVIATIONS USED IN REMARKS
   TC - TEMPERATURES IN CELSIUS
  WCI - WIND CHILL INDEX
   HX - HEAT INDEX
  VSB - VISIBILITY
$$



USA.gov is the U.S. government's official web portal to all federal, state and local government web resources and services.